Weather History for Montevideo, MN

Change the Weather History Date:

Friday, December 7, 2012

  Actual Average Record
Temperature  
Mean Temperature 26 °F -  
Max Temperature 28 °F 27 °F 50 °F (1965)
Min Temperature 23 °F 11 °F -14 °F (2013)
Degree Days  
Heating Degree Days 40    
Moisture  
Dew Point 25 °F    
Average Humidity 93    
Maximum Humidity 100    
Minimum Humidity 80    
Precipitation  
Precipitation 0.04 in - - ()
Sea Level Pressure  
Sea Level Pressure 30.03 in    
Wind  
Wind Speed 2 mph (ENE)    
Max Wind Speed 9 mph    
Max Gust Speed -    
Visibility 5 miles    
Events Snow    
Averages and records for this station are not official NWS values.
T = Trace of Precipitation, MM = Missing Value Source: NWS Daily Summary

Daily Weather History Graph

Daily Weather History Graph

Search for Another Location

Airport:

Trip Planner

Search our weather history database for the weather conditions in past years. The results will help you decide how hot, cold, wet, or windy it might be!

Date:

Astronomy

Dec. 07, 2012 Rise Set
Actual Time 7:47 AM CST 4:41 PM CST
Civil Twilight 7:14 AM CST 5:14 PM CST
Nautical Twilight 6:37 AM CST 5:51 PM CST
Astronomical Twilight 6:01 AM CST 6:27 PM CST
Moon 12:53 AM CST (12/7) 12:52 PM CST (12/7)
Length of Visible Light 10h 00m
Length of Day
8h 53m
Last Quarter, 38% of the Moon is Illuminated
Dec 7
Last Quarter
Dec 13
New
Dec 19
First Quarter
Dec 28
Full
Jan 4
Last Quarter

Hourly Weather History & Observations

Time (CST) Temp. Windchill Dew Point Humidity Pressure Visibility Wind Dir Wind Speed Gust Speed Precip Events Conditions
12:14 AM 24.8 °F 20.5 °F 21.2 °F 86% 30.03 in 10.0 mi NW 3.5 mph - N/A   Clear
12:34 AM 24.8 °F - 21.2 °F 86% 30.02 in 10.0 mi Calm Calm - N/A   Clear
12:54 AM 24.8 °F - 21.2 °F 86% 30.02 in 10.0 mi Calm Calm - N/A   Scattered Clouds
1:14 AM 24.8 °F 20.5 °F 21.2 °F 86% 30.02 in 10.0 mi NW 3.5 mph - N/A   Scattered Clouds
1:34 AM 24.8 °F 20.5 °F 21.2 °F 86% 30.02 in 10.0 mi West 3.5 mph - N/A   Clear
1:54 AM 24.8 °F 20.5 °F 21.2 °F 86% 30.03 in 10.0 mi West 3.5 mph - N/A   Clear
2:14 AM 24.8 °F - 21.2 °F 86% 30.03 in 10.0 mi Calm Calm - N/A   Scattered Clouds
2:34 AM 24.8 °F 20.5 °F 21.2 °F 86% 30.03 in 10.0 mi WSW 3.5 mph - N/A   Mostly Cloudy
2:54 AM 24.8 °F - 21.2 °F 86% 30.04 in 10.0 mi Calm Calm - N/A   Scattered Clouds
3:15 AM 24.8 °F - 21.2 °F 86% 30.03 in 10.0 mi Calm Calm - N/A   Scattered Clouds
3:34 AM 24.8 °F - 21.2 °F 86% 30.03 in 10.0 mi Calm Calm - N/A   Clear
3:54 AM 24.8 °F - 21.2 °F 86% 30.03 in 10.0 mi Calm Calm - N/A   Scattered Clouds
4:15 AM 24.8 °F - 21.2 °F 86% 30.02 in 10.0 mi Calm Calm - N/A   Scattered Clouds
4:34 AM 24.8 °F - 21.2 °F 86% 30.02 in 10.0 mi Calm Calm - N/A   Clear
4:54 AM 24.8 °F - 21.2 °F 86% 30.01 in 10.0 mi Calm Calm - N/A   Scattered Clouds
5:15 AM 23.0 °F - 21.2 °F 93% 30.01 in 10.0 mi Calm Calm - N/A   Clear
5:34 AM 23.0 °F - 21.2 °F 93% 30.01 in 10.0 mi Calm Calm - N/A   Clear
5:54 AM 24.8 °F - 21.2 °F 86% 30.01 in 10.0 mi Calm Calm - N/A   Scattered Clouds
6:15 AM 23.0 °F - 21.2 °F 93% 30.02 in 10.0 mi Calm Calm - N/A   Scattered Clouds
6:34 AM 24.8 °F - 21.2 °F 86% 30.02 in 10.0 mi Calm Calm - N/A   Overcast
6:54 AM 24.8 °F - 21.2 °F 86% 30.03 in 10.0 mi Calm Calm - N/A   Overcast
7:15 AM 26.6 °F - 21.2 °F 80% 30.03 in 10.0 mi Calm Calm - N/A   Overcast
7:34 AM 26.6 °F 22.6 °F 21.2 °F 80% 30.04 in 10.0 mi WNW 3.5 mph - N/A   Overcast
7:54 AM 26.6 °F 22.6 °F 21.2 °F 80% 30.04 in 10.0 mi WNW 3.5 mph - N/A   Overcast
8:15 AM 26.6 °F 22.6 °F 23.0 °F 86% 30.04 in 10.0 mi NW 3.5 mph - N/A   Overcast
8:34 AM 26.6 °F - 23.0 °F 86% 30.04 in 10.0 mi Calm Calm - N/A   Overcast
8:54 AM 28.4 °F - 23.0 °F 80% 30.05 in 10.0 mi Calm Calm - N/A   Mostly Cloudy
9:13 AM 28.4 °F 24.6 °F 23.0 °F 80% 30.05 in 10.0 mi West 3.5 mph - N/A   Mostly Cloudy
9:34 AM 28.4 °F 24.6 °F 23.0 °F 80% 30.06 in 10.0 mi West 3.5 mph - N/A   Overcast
9:54 AM 28.4 °F 23.3 °F 24.8 °F 86% 30.06 in 5.0 mi West 4.6 mph - N/A   Haze
10:14 AM 28.4 °F - 26.6 °F 93% 30.07 in 1.0 mi Calm Calm - N/A Snow Light Snow
10:34 AM 28.4 °F - 26.6 °F 93% 30.07 in 0.8 mi Calm Calm - N/A   Overcast
10:54 AM 28.4 °F - 26.6 °F 93% 30.07 in 1.0 mi Calm Calm - N/A Snow Light Snow
11:14 AM 28.4 °F - 28.4 °F 100% 30.07 in 1.0 mi Calm Calm - 0.01 in   Overcast
11:34 AM 28.4 °F - 28.4 °F 100% 30.07 in 1.0 mi Calm Calm - 0.01 in Snow Light Snow
11:54 AM 28.4 °F - 28.4 °F 100% 30.05 in 1.0 mi Calm Calm - 0.02 in Snow Light Snow
12:14 PM 28.4 °F - 28.4 °F 100% 30.05 in 1.2 mi Calm Calm - N/A Snow Light Snow
12:34 PM 28.4 °F 22.2 °F 28.4 °F 100% 30.03 in 1.2 mi ENE 5.8 mph - N/A Snow Light Snow
12:54 PM 28.4 °F 20.4 °F 28.4 °F 100% 30.02 in 1.8 mi East 8.1 mph - N/A Snow Light Snow
1:14 PM 28.4 °F 19.7 °F 28.4 °F 100% 30.01 in 1.8 mi East 9.2 mph - N/A Snow Light Snow
1:34 PM 28.4 °F 19.7 °F 28.4 °F 100% 30.01 in 2.0 mi East 9.2 mph - N/A Snow Light Snow
1:54 PM 28.4 °F 19.7 °F 28.4 °F 100% 30.00 in 1.5 mi East 9.2 mph - N/A Snow Light Snow
2:14 PM 28.4 °F 19.7 °F 28.4 °F 100% 30.00 in 1.2 mi East 9.2 mph - N/A Snow Light Snow
2:34 PM 28.4 °F 21.2 °F 28.4 °F 100% 30.00 in 1.5 mi East 6.9 mph - N/A Snow Light Snow
3:14 PM 28.4 °F 19.7 °F 28.4 °F 100% 30.00 in 1.0 mi East 9.2 mph - N/A Snow Light Snow
3:34 PM 28.4 °F 21.2 °F 28.4 °F 100% 30.01 in 0.8 mi East 6.9 mph - N/A Snow Light Snow
3:54 PM 28.4 °F 20.4 °F 28.4 °F 100% 30.01 in 1.2 mi East 8.1 mph - N/A Snow Light Snow
4:14 PM 28.4 °F 21.2 °F 28.4 °F 100% 30.01 in 1.0 mi ESE 6.9 mph - N/A Snow Light Snow
4:34 PM 28.4 °F 22.2 °F 28.4 °F 100% 30.02 in 2.0 mi East 5.8 mph - N/A Snow Light Snow
4:54 PM 28.4 °F 23.3 °F 28.4 °F 100% 30.02 in 1.0 mi ESE 4.6 mph - 0.01 in Snow Snow
5:14 PM 28.4 °F 24.6 °F 28.4 °F 100% 30.02 in 1.2 mi East 3.5 mph - 0.01 in Snow Light Snow
5:34 PM 28.4 °F 23.3 °F 28.4 °F 100% 30.02 in 1.5 mi ESE 4.6 mph - 0.01 in Snow Light Snow
5:54 PM 28.4 °F - 28.4 °F 100% 30.03 in 2.0 mi Calm Calm - 0.01 in Snow Light Snow
6:14 PM 28.4 °F - 28.4 °F 100% 30.03 in 2.0 mi Calm Calm - N/A Snow Light Snow
6:34 PM 28.4 °F - 28.4 °F 100% 30.03 in 2.0 mi Calm Calm - N/A   Overcast
7:14 PM 28.4 °F - 28.4 °F 100% 30.04 in 2.0 mi Calm Calm - N/A   Overcast
7:34 PM 28.4 °F - 28.4 °F 100% 30.04 in 2.0 mi Calm Calm - N/A   Overcast
7:54 PM 28.4 °F - 28.4 °F 100% 30.04 in 2.0 mi Calm Calm - N/A   Overcast
8:34 PM 28.4 °F - 28.4 °F 100% 30.04 in 1.5 mi Calm Calm - N/A   Overcast
8:54 PM 28.4 °F - 28.4 °F 100% 30.04 in 2.0 mi Calm Calm - N/A   Overcast
9:14 PM 28.4 °F - 28.4 °F 100% 30.04 in 2.5 mi Calm Calm - N/A   Overcast
9:34 PM 26.6 °F - 26.6 °F 100% 30.04 in 2.5 mi Calm Calm - N/A Snow Light Snow
9:54 PM 26.6 °F - 26.6 °F 100% 30.04 in 2.5 mi Calm Calm - N/A   Overcast
10:14 PM 26.6 °F - 26.6 °F 100% 30.04 in 2.0 mi Calm Calm - N/A Snow Light Snow
10:34 PM 26.6 °F - 26.6 °F 100% 30.04 in 1.8 mi Calm Calm - N/A Snow Light Snow
10:54 PM 26.6 °F - 26.6 °F 100% 30.04 in 2.0 mi Calm Calm - N/A Snow Light Snow
11:14 PM 26.6 °F - 26.6 °F 100% 30.04 in 2.5 mi Calm Calm - N/A Snow Light Snow
11:34 PM 26.6 °F - 26.6 °F 100% 30.04 in 2.5 mi Calm Calm - N/A Snow Light Snow
11:54 PM 26.6 °F - 26.6 °F 100% 30.04 in 2.5 mi Calm Calm - N/A Snow Light Snow